FW3211 Weather Reports


Display with metric or nautical units.
time (UTC)temp
F
wind
direction
speed
MPH
gust
MPH
rain 1hr
in
rain 24hr
in
rain mn
in
humidity
%
barometer
mb
20260509121843 66 178 4.0 10.0 0.00 0.00 0.00 64 1018.1
20260509121339 66 108 4.0 10.0 0.00 0.00 0.00 65 1018.2
20260509121142 66 91 5.0 11.0 0.00 0.00 0.00 65 1018.2
20260509120338 66 127 4.0 11.0 0.00 0.00 0.00 65 1018.2
20260509115836 66 167 4.0 10.0 0.00 0.00 0.00 65 1018.2
20260509115334 66 153 4.0 11.0 0.00 0.00 0.00 65 1018.3
20260509114834 66 168 4.0 12.0 0.00 0.00 0.00 66 1018.2
20260509114333 66 85 4.0 12.0 0.00 0.00 0.00 66 1018.3
20260509113836 66 127 4.0 10.0 0.00 0.00 0.00 67 1018.3
20260509113622 66 136 5.0 13.0 0.00 0.00 0.00 67 1018.3
20260509112832 66 199 5.0 13.0 0.00 0.00 0.00 67 1018.3
20260509112332 66 102 5.0 12.0 0.00 0.00 0.00 67 1018.4
20260509111831 67 151 4.0 13.0 0.00 0.00 0.00 67 1018.3
20260509111328 66 188 4.0 13.0 0.00 0.00 0.00 67 1018.3
20260509110815 66 160 4.0 10.0 0.00 0.00 0.00 67 1018.3
20260509110325 67 118 4.0 10.0 0.00 0.00 0.00 67 1018.3
20260509105817 67 116 4.0 8.0 0.00 0.00 0.00 66 1018.2
20260509105310 67 75 4.0 8.0 0.00 0.00 0.00 64 1018.3
20260509104810 67 111 3.0 9.0 0.00 0.00 0.00 65 1018.2
20260509104309 67 120 4.0 9.0 0.00 0.00 0.00 66 1018.2
20260509103847 67 91 3.0 8.0 0.00 0.00 0.00 65 1018.2
20260509103835 67 92 4.0 8.0 0.00 0.00 0.00 66 1018.2
20260509102805 67 131 4.0 9.0 0.00 0.00 0.00 67 1018.2
20260509102306 67 102 4.0 9.0 0.00 0.00 0.00 66 1018.3
20260509102054 67 98 4.0 9.0 0.00 0.00 0.00 65 1018.3
20260509101305 67 114 3.0 8.0 0.00 0.00 0.00 65 1018.3
20260509100912 67 90 3.0 8.0 0.00 0.00 0.00 65 1018.3
20260509100833 67 180 3.0 8.0 0.00 0.00 0.00 65 1018.2
20260509095805 67 139 3.0 8.0 0.00 0.00 0.00 65 1018.3
20260509095307 67 96 4.0 9.0 0.00 0.00 0.00 65 1018.3
20260509094808 68 121 4.0 9.0 0.00 0.00 0.00 63 1018.3
20260509094309 68 73 3.0 8.0 0.00 0.00 0.00 63 1018.3
20260509093810 68 142 3.0 9.0 0.00 0.00 0.00 64 1018.2
20260509093310 67 93 3.0 9.0 0.00 0.00 0.00 64 1018.3
20260509092808 67 84 3.0 7.0 0.00 0.00 0.00 63 1018.4
20260509092307 67 171 2.0 7.0 0.00 0.00 0.00 63 1018.4
20260509091805 68 112 2.0 7.0 0.00 0.00 0.00 64 1018.4
20260509091318 68 166 3.0 8.0 0.00 0.00 0.00 63 1018.5
20260509091110 67 101 2.0 8.0 0.00 0.00 0.00 63 1018.5
20260509090307 67 66 2.0 4.0 0.00 0.00 0.00 63 1018.5
20260509085805 67 56 2.0 6.0 0.00 0.00 0.00 64 1018.5
20260509085339 66 78 2.0 8.0 0.00 0.00 0.00 63 1018.5
20260509085324 67 293 2.0 8.0 0.00 0.00 0.00 65 1018.5
20260509084306 67 179 2.0 4.0 0.00 0.00 0.00 63 1018.6
20260509084050 67 202 2.0 5.0 0.00 0.00 0.00 63 1018.5
20260509083306 67 250 2.0 5.0 0.00 0.00 0.00 62 1018.5
20260509082806 67 91 2.0 6.0 0.00 0.00 0.00 62 1018.5
20260509082307 67 226 2.0 6.0 0.00 0.00 0.00 63 1018.5
20260509081806 67 218 2.0 6.0 0.00 0.00 0.00 64 1018.4
20260509081355 67 140 2.0 6.0 0.00 0.00 0.00 65 1018.5
20260509081342 67 90 2.0 6.0 0.00 0.00 0.00 65 1018.5
20260509080306 66 90 2.0 6.0 0.00 0.00 0.00 65 1018.5
20260509075807 66 152 2.0 5.0 0.00 0.00 0.00 65 1018.5
20260509075307 66 156 2.0 4.0 0.00 0.00 0.00 64 1018.6
20260509074806 66 178 2.0 4.0 0.00 0.00 0.00 64 1018.7
20260509074307 66 114 2.0 5.0 0.00 0.00 0.00 65 1018.7
20260509073806 66 141 2.0 5.0 0.00 0.00 0.00 65 1018.8
20260509073306 66 130 2.0 4.0 0.00 0.00 0.00 63 1018.7
20260509072805 66 162 2.0 4.0 0.00 0.00 0.00 63 1018.6
20260509072307 65 173 2.0 7.0 0.00 0.00 0.00 64 1018.6
20260509071806 65 114 2.0 7.0 0.00 0.00 0.00 63 1018.7
20260509071308 66 91 2.0 4.0 0.00 0.00 0.00 63 1018.6
20260509070807 66 115 2.0 4.0 0.00 0.00 0.00 63 1018.6
20260509070307 66 96 2.0 4.0 0.00 0.00 0.00 63 1018.6
20260509065806 65 114 1.0 3.0 0.00 0.00 0.00 64 1018.5
20260509065546 65 114 1.0 3.0 0.00 0.00 0.00 68 1018.5
20260509064806 65 114 1.0 3.0 0.00 0.00 0.00 68 1018.5
20260509064306 65 112 1.0 3.0 0.00 0.00 0.00 65 1018.4
20260509063806 65 112 1.0 3.0 0.00 0.00 0.00 68 1018.4
20260509063309 65 112 1.0 3.0 0.00 0.00 0.00 68 1018.4
20260509062807 65 111 1.0 3.0 0.00 0.00 0.00 68 1018.5
20260509062306 65 111 1.0 3.0 0.00 0.00 0.00 69 1018.5
20260509061808 65 83 1.0 3.0 0.00 0.00 0.00 67 1018.4
20260509061305 65 56 1.0 3.0 0.00 0.00 0.00 69 1018.4
20260509060806 65 56 1.0 3.0 0.00 0.00 0.00 68 1018.5
20260509060307 65 56 1.0 2.0 0.00 0.00 0.00 67 1018.4
20260509055807 65 56 1.0 3.0 0.00 0.00 0.00 67 1018.5
20260509055307 65 56 1.0 3.0 0.00 0.00 0.00 67 1018.5
20260509054804 66 345 0.0 2.0 0.00 0.00 0.00 66 1018.4
20260509054303 65 343 0.0 2.0 0.00 0.00 0.00 66 1018.3
20260509053804 65 343 0.0 2.0 0.00 0.00 0.00 66 1018.3
20260509053305 65 343 0.0 2.0 0.00 0.00 0.00 65 1018.3
20260509052805 65 343 0.0 1.0 0.00 0.00 0.00 65 1018.3
20260509052308 65 343 0.0 1.0 0.00 0.00 0.00 65 1018.3
20260509051804 65 343 0.0 1.0 0.00 0.00 0.00 65 1018.3
20260509051303 64 343 0.0 1.0 0.00 0.00 0.00 66 1018.2
20260509050804 63 343 0.0 1.0 0.00 0.00 0.00 67 1018.2
20260509050304 63 343 0.0 1.0 0.00 0.00 0.00 68 1018.2
20260509045805 62 343 0.0 1.0 0.00 0.00 0.00 69 1018.2
20260509045307 61 343 0.0 1.0 0.00 0.00 0.00 71 1018.2
20260509044806 60 343 0.0 2.0 0.00 0.00 0.00 71 1018.1
20260509044553 60 343 1.0 2.0 0.00 0.00 0.00 71 1018.1
20260509043807 59 343 1.0 2.0 0.00 0.00 0.00 72 1018.1
20260509043557 59 343 2.0 2.0 0.00 0.00 0.00 72 1018.1
20260509043042 58 343 2.0 2.0 0.00 0.00 0.00 72 1018.0
20260509042307 58 343 2.0 3.0 0.00 0.00 0.00 72 1018.0
20260509041804 59 343 2.0 3.0 0.00 0.00 0.00 72 1018.0
20260509041304 59 343 2.0 3.0 0.00 0.00 0.00 72 1018.0
20260509040805 59 343 2.0 3.0 0.00 0.00 0.00 71 1018.0
20260509040307 59 343 2.0 3.0 0.00 0.00 0.00 71 1018.0
20260509035804 59 343 2.0 3.0 0.00 0.00 0.00 71 1018.0
20260509035306 59 343 2.0 3.0 0.00 0.00 0.00 71 1017.9
20260509034805 59 343 2.0 3.0 0.00 0.00 0.00 71 1017.9
20260509034305 59 343 2.0 3.0 0.00 0.00 0.00 71 1017.8
20260509033805 59 344 2.0 3.0 0.00 0.00 0.00 71 1017.8
20260509033305 59 337 2.0 3.0 0.00 0.00 0.00 71 1017.7
20260509033047 59 337 2.0 3.0 0.00 0.00 0.00 71 1017.7
20260509032544 59 334 2.0 3.0 0.00 0.00 0.00 72 1017.7
20260509032042 59 334 2.0 3.0 0.00 0.00 0.00 72 1017.7
20260509031305 59 334 2.0 3.0 0.00 0.00 0.00 72 1017.7
20260509030804 59 333 2.0 3.0 0.00 0.00 0.00 72 1017.7
20260509030303 59 333 2.0 3.0 0.00 0.00 0.00 72 1017.8
20260509025804 59 334 2.0 3.0 0.00 0.00 0.00 72 1017.9
20260509025334 59 318 2.0 3.0 0.00 0.00 0.00 72 1017.8
20260509025321 59 333 2.0 3.0 0.00 0.00 0.00 72 1017.8
20260509024304 59 316 2.0 3.0 0.00 0.00 0.00 72 1017.9
20260509023803 59 316 2.0 3.0 0.00 0.00 0.00 72 1017.9
20260509023304 59 304 2.0 3.0 0.00 0.00 0.00 71 1017.9
20260509023044 59 335 2.0 3.0 0.00 0.00 0.00 71 1017.9
20260509022306 59 309 2.0 3.0 0.00 0.00 0.00 71 1017.9
20260509021807 59 326 2.0 3.0 0.00 0.00 0.00 71 1017.8
20260509021303 59 325 2.0 3.0 0.00 0.00 0.00 71 1017.8
20260509021040 59 324 2.0 3.0 0.00 0.00 0.00 71 1017.8
20260509020314 59 328 2.0 3.0 0.00 0.00 0.00 71 1017.8
20260509015803 59 328 2.0 3.0 0.00 0.00 0.00 71 1017.8
20260509015306 59 328 2.0 3.0 0.00 0.00 0.00 71 1017.8
20260509014803 59 328 2.0 3.0 0.00 0.00 0.00 71 1017.8
20260509014307 59 328 2.0 3.0 0.00 0.00 0.00 71 1017.8
20260509013804 59 328 2.0 3.0 0.00 0.00 0.00 71 1017.8
20260509013552 59 327 2.0 4.0 0.00 0.00 0.00 71 1017.8
20260509012804 59 348 2.0 4.0 0.00 0.00 0.00 71 1017.7
20260509012306 59 305 2.0 4.0 0.00 0.00 0.00 71 1017.6
20260509011926 59 303 2.0 4.0 0.00 0.00 0.00 71 1017.7
20260509011916 59 298 2.0 3.0 0.00 0.00 0.00 72 1017.7
20260509011855 59 321 2.0 4.0 0.00 0.00 0.00 71 1017.7
20260509010303 58 354 2.0 3.0 0.00 0.00 0.00 72 1017.7
20260509005804 58 317 2.0 3.0 0.00 0.00 0.00 73 1017.7
20260509005306 58 320 1.0 2.0 0.00 0.00 0.00 73 1017.8
20260509004803 58 320 1.0 2.0 0.00 0.00 0.00 72 1017.9
20260509004556 58 320 1.0 2.0 0.00 0.00 0.00 72 1018.0
20260509004101 58 320 2.0 3.0 0.00 0.00 0.00 72 1018.0
20260509003551 59 319 1.0 3.0 0.00 0.00 0.00 72 1018.0
20260509002803 59 318 0.0 2.0 0.00 0.00 0.00 71 1018.1
20260509002306 59 318 1.0 3.0 0.00 0.00 0.00 71 1018.0
20260509002046 59 318 2.0 3.0 0.00 0.00 0.00 71 1017.9
20260509001301 59 318 2.0 3.0 0.00 0.00 0.00 71 1017.9
20260509001056 59 317 1.0 3.0 0.00 0.00 0.00 71 1017.9
20260509000303 59 317 1.0 3.0 0.00 0.00 0.00 71 1017.9
20260508235803 59 317 1.0 3.0 0.00 0.00 0.00 71 1017.9
20260508235259 59 317 1.0 2.0 0.00 0.00 0.00 71 1017.9
20260508234800 59 317 1.0 3.0 0.00 0.00 0.00 71 1017.8
20260508234301 59 317 1.0 3.0 0.00 0.00 0.00 72 1017.8
20260508233756 59 317 1.0 2.0 0.00 0.00 0.00 71 1017.8
20260508233253 59 317 1.0 3.0 0.00 0.00 0.00 72 1017.8
20260508232756 59 317 1.0 3.0 0.00 0.00 0.00 72 1017.8
20260508232252 59 317 1.0 3.0 0.00 0.00 0.00 71 1017.8
20260508231752 59 317 1.0 2.0 0.00 0.00 0.00 71 1017.8
20260508231252 60 317 1.0 2.0 0.00 0.00 0.00 71 1017.8
20260508231107 60 317 1.0 2.0 0.00 0.00 0.00 70 1017.7
20260508230251 60 317 1.0 2.0 0.00 0.00 0.00 70 1017.7
20260508225746 60 317 1.0 2.0 0.00 0.00 0.00 71 1017.7
20260508225244 60 317 1.0 2.0 0.00 0.00 0.00 71 1017.7
20260508224743 60 317 1.0 3.0 0.00 0.00 0.00 71 1017.8
20260508224242 60 317 1.0 3.0 0.00 0.00 0.00 71 1017.7
20260508223742 60 317 1.0 3.0 0.00 0.00 0.00 70 1017.7
20260508223242 60 317 1.0 3.0 0.00 0.00 0.00 71 1017.7
20260508222741 60 317 1.0 3.0 0.00 0.00 0.00 71 1017.6
20260508222238 60 317 1.0 2.0 0.00 0.00 0.00 70 1017.6
20260508222021 60 317 2.0 3.0 0.00 0.00 0.00 70 1017.6
20260508221524 60 317 2.0 3.0 0.00 0.00 0.00 71 1017.6
20260508220732 60 317 2.0 3.0 0.00 0.00 0.00 70 1017.6
20260508220232 60 354 2.0 3.0 0.00 0.00 0.00 71 1017.6
20260508215733 60 354 2.0 3.0 0.00 0.00 0.00 71 1017.6
20260508215233 60 354 2.0 3.0 0.00 0.00 0.00 71 1017.6
20260508214735 60 354 2.0 3.0 0.00 0.00 0.00 71 1017.6
20260508214233 60 354 2.0 3.0 0.00 0.00 0.00 71 1017.6
20260508213734 60 354 2.0 3.0 0.00 0.00 0.00 71 1017.6
20260508213232 60 354 2.0 3.0 0.00 0.00 0.00 70 1017.5
20260508212732 60 350 2.0 3.0 0.00 0.00 0.00 70 1017.5
20260508212315 60 332 2.0 3.0 0.00 0.00 0.00 70 1017.4
20260508212256 60 325 2.0 3.0 0.00 0.00 0.00 70 1017.4
20260508211515 60 332 2.0 3.0 0.00 0.00 0.00 70 1017.4
20260508210728 60 332 2.0 4.0 0.00 0.00 0.00 69 1017.4
20260508210226 60 293 2.0 4.0 0.00 0.00 0.00 69 1017.4
20260508205721 60 316 2.0 4.0 0.00 0.00 0.00 70 1017.4
20260508205500 60 347 2.0 4.0 0.00 0.00 0.00 69 1017.3
20260508204720 60 349 2.0 3.0 0.00 0.00 0.00 69 1017.3
20260508204514 61 337 2.0 3.0 0.00 0.00 0.00 69 1017.3
20260508203727 61 332 2.0 3.0 0.00 0.00 0.00 69 1017.3
20260508203220 61 349 2.0 3.0 0.00 0.00 0.00 69 1017.3
20260508202722 61 347 2.0 4.0 0.00 0.00 0.00 70 1017.3
20260508202219 61 347 2.0 4.0 0.00 0.00 0.00 69 1017.3
20260508201721 61 320 2.0 3.0 0.00 0.00 0.00 69 1017.3
20260508201219 61 359 2.0 3.0 0.00 0.00 0.00 69 1017.2
20260508200719 61 326 2.0 3.0 0.00 0.00 0.00 69 1017.1
20260508200219 61 326 2.0 3.0 0.00 0.00 0.00 70 1017.1
20260508195719 61 350 2.0 3.0 0.00 0.00 0.00 70 1017.0
20260508195220 61 307 2.0 3.0 0.00 0.00 0.00 70 1017.0
20260508194719 61 343 2.0 3.0 0.00 0.00 0.00 70 1017.0
20260508194220 61 354 2.0 3.0 0.00 0.00 0.00 71 1017.1
20260508193719 61 320 2.0 4.0 0.00 0.00 0.00 71 1017.0
20260508193215 61 305 2.0 4.0 0.00 0.00 0.00 71 1017.0
20260508193009 61 342 2.0 3.0 0.00 0.00 0.00 72 1016.9
20260508192216 61 342 2.0 3.0 0.00 0.00 0.00 72 1016.7
20260508191715 61 320 2.0 3.0 0.00 0.00 0.00 72 1016.7
20260508191215 61 315 2.0 3.0 0.00 0.00 0.00 72 1016.6
20260508190715 61 337 2.0 4.0 0.00 0.00 0.00 72 1016.5
20260508190218 61 327 2.0 4.0 0.00 0.00 0.00 72 1016.5
20260508185715 61 338 2.0 3.0 0.00 0.00 0.00 72 1016.4
20260508185211 61 342 2.0 3.0 0.00 0.00 0.00 72 1016.3
20260508184713 61 342 2.0 3.0 0.00 0.00 0.00 72 1016.2
20260508184210 62 337 2.0 3.0 0.00 0.00 0.00 72 1016.2
20260508183713 62 337 2.0 3.0 0.00 0.00 0.00 71 1016.1
20260508183504 62 337 2.0 4.0 0.00 0.00 0.00 72 1016.1
20260508182956 62 336 2.0 4.0 0.00 0.00 0.00 72 1016.0
20260508182455 62 336 2.0 3.0 0.00 0.00 0.00 72 1015.9
20260508181713 62 335 2.0 3.0 0.00 0.00 0.00 72 1015.9
20260508181207 62 335 2.0 3.0 0.00 0.00 0.00 72 1015.8
20260508180706 62 336 2.0 3.0 0.00 0.00 0.00 72 1015.7
20260508180207 62 332 2.0 3.0 0.00 0.00 0.00 72 1015.7
20260508175707 62 329 2.0 3.0 0.00 0.00 0.00 71 1015.6
20260508175449 63 329 2.0 3.0 0.00 0.00 0.00 71 1015.6
20260508174707 63 328 2.0 3.0 0.00 0.00 0.00 71 1015.5
20260508174445 63 324 2.0 3.0 0.00 0.00 0.00 71 1015.5
20260508173705 63 321 2.0 3.0 0.00 0.00 0.00 71 1015.4
20260508173203 63 314 2.0 3.0 0.00 0.00 0.00 71 1015.3
20260508172704 63 314 2.0 3.0 0.00 0.00 0.00 70 1015.3
20260508172203 63 313 2.0 3.0 0.00 0.00 0.00 69 1015.3
20260508171953 63 311 2.0 3.0 0.00 0.00 0.00 70 1015.4
20260508171203 63 310 2.0 3.0 0.00 0.00 0.00 70 1015.4
20260508170705 63 330 2.0 3.0 0.00 0.00 0.00 70 1015.3
20260508170204 63 330 2.0 3.0 0.00 0.00 0.00 70 1015.2
20260508165705 63 330 2.0 3.0 0.00 0.00 0.00 69 1015.2
20260508165206 63 327 2.0 3.0 0.00 0.00 0.00 68 1015.1
20260508164703 63 326 2.0 3.0 0.00 0.00 0.00 68 1015.1
20260508164203 64 316 2.0 3.0 0.00 0.00 0.00 68 1015.1
20260508163704 64 332 2.0 3.0 0.00 0.00 0.00 67 1015.0
20260508163458 64 332 2.0 3.0 0.00 0.00 0.00 68 1015.0
20260508162702 64 332 2.0 3.0 0.00 0.00 0.00 68 1015.1
20260508162225 63 330 2.0 3.0 0.00 0.00 0.00 67 1015.2
20260508162216 64 332 2.0 3.0 0.00 0.00 0.00 67 1015.2
20260508161438 63 330 2.0 3.0 0.00 0.00 0.00 68 1015.1
20260508160650 64 330 2.0 4.0 0.00 0.00 0.00 68 1015.0
20260508160149 64 335 2.0 4.0 0.00 0.00 0.00 68 1015.0
20260508155649 64 359 2.0 3.0 0.00 0.00 0.00 68 1015.0
20260508155149 64 354 2.0 3.0 0.00 0.00 0.00 67 1015.0
20260508154648 64 354 2.0 3.0 0.00 0.00 0.00 68 1015.0
20260508154145 64 343 2.0 3.0 0.00 0.00 0.00 68 1015.0
20260508153641 64 341 2.0 3.0 0.00 0.00 0.00 68 1015.1
20260508153140 64 341 2.0 3.0 0.00 0.00 0.00 67 1015.0
20260508152641 64 348 2.0 4.0 0.00 0.00 0.00 67 1015.1
20260508152139 64 348 2.0 4.0 0.00 0.00 0.00 66 1015.1
20260508151922 64 339 2.0 3.0 0.00 0.00 0.00 67 1015.1
20260508151132 65 325 2.0 4.0 0.00 0.00 0.00 66 1015.2
20260508150633 65 332 2.0 4.0 0.00 0.00 0.00 66 1015.0
20260508150133 65 335 2.0 3.0 0.00 0.00 0.00 65 1015.0
20260508145632 66 335 2.0 3.0 0.00 0.00 0.00 64 1015.2
20260508145135 67 359 2.0 3.0 0.00 0.00 0.00 63 1015.2
20260508144916 68 359 2.0 3.0 0.00 0.00 0.00 62 1015.2
20260508144129 68 4 2.0 4.0 0.00 0.00 0.00 61 1015.3
20260508143624 69 25 2.0 4.0 0.00 0.00 0.00 57 1015.2
20260508143427 70 335 2.0 4.0 0.00 0.00 0.00 59 1015.2
20260508142909 70 308 1.0 4.0 0.00 0.00 0.00 59 1015.2
20260508142116 70 321 1.0 3.0 0.00 0.00 0.00 57 1015.3
20260508141627 70 13 2.0 4.0 0.00 0.00 0.00 54 1015.3
20260508141112 70 23 1.0 4.0 0.00 0.00 0.00 56 1015.4
20260508140612 70 81 1.0 3.0 0.00 0.00 0.00 56 1015.4
20260508140132 70 79 2.0 4.0 0.00 0.00 0.00 58 1015.4
20260508135612 70 105 2.0 5.0 0.00 0.00 0.00 56 1015.4
20260508135111 70 33 1.0 5.0 0.00 0.00 0.00 58 1015.4
20260508134857 70 98 1.0 4.0 0.00 0.00 0.00 58 1015.4
20260508134429 70 189 1.0 3.0 0.00 0.00 0.00 59 1015.6
20260508134132 70 148 1.0 4.0 0.00 0.00 0.00 57 1015.5
20260508133121 70 228 1.0 3.0 0.00 0.00 0.00 58 1015.6
20260508132610 69 97 1.0 4.0 0.00 0.00 0.00 55 1015.6
20260508132109 69 41 1.0 4.0 0.00 0.00 0.00 57 1015.6
20260508131610 69 131 1.0 3.0 0.00 0.00 0.00 57 1015.6
20260508131110 69 131 1.0 4.0 0.00 0.00 0.00 57 1015.6
20260508130611 69 23 1.0 4.0 0.00 0.00 0.00 57 1015.6
20260508130122 69 83 1.0 4.0 0.00 0.00 0.00 54 1015.6
20260508125608 68 76 1.0 4.0 0.00 0.00 0.00 50 1015.6
20260508125107 68 162 1.0 4.0 0.00 0.00 0.00 50 1015.6
20260508124606 69 24 1.0 2.0 0.00 0.00 0.00 55 1015.6
20260508124107 68 79 1.0 4.0 0.00 0.00 0.00 51 1015.6
20260508123605 68 79 1.0 5.0 0.00 0.00 0.00 53 1015.6
20260508123105 69 300 2.0 5.0 0.00 0.00 0.00 54 1015.7
20260508122607 69 85 2.0 4.0 0.00 0.00 0.00 48 1015.6
20260508122348 69 150 1.0 4.0 0.00 0.00 0.00 46 1015.6